Wind_Speed
0 9 10 11 11 11 11 9 5 6 6 9 11 11 16 19 20 23 25 27 29 30 31 32 36 35 35 36 35 35 38 41 41 33 32 35 35 33 30 26 24 22 15 11
3 9 12 12 10 10 7 5 3 1 5 6 21 9 15 19 21 23 24 26 26 27 30 30 36 32 34 34 31 33 39 36 30 33 34 28 30 27 29 29 29 24 22 21
4 8 14 6 3 6 6 3 1 5 4 11 10 10 14 19 22 22 23 24 26 26 26 30 33 32 31 32 34 31 34 32 30 28 27 31 26 25 26 21 21 28 23 21
6 11 2 1 6 3 4 5 4 3 8 12 16 9 15 18 21 22 23 22 23 24 24 25 30 33 26 28 33 34 31 28 28 29 28 24 24 26 27 27 24 19 19 21
4 5 10 5 5 0 2 2 8 9 11 17 20 10 22 21 18 19 21 21 22 22 22 23 25 30 31 29 26 31 31 31 27 27 27 31 31 28 25 20 25 24 19 12
4 4 1 5 9 8 3 2 12 14 14 15 17 8 9 17 17 18 19 20 23 23 22 23 24 25 26 30 27 28 31 29 30 27 22 27 27 27 26 26 25 26 19 20
2 2 3 6 11 16 3 5 11 11 15 15 11 12 13 15 17 16 17 19 19 21 22 23 25 23 25 26 28 28 25 25 28 29 24 26 22 24 25 26 22 18 18 17
2 2 3 7 7 6 5 11 13 12 11 11 13 15 15 15 17 18 20 20 19 20 22 22 23 27 26 25 27 29 27 27 26 30 26 25 25 23 23 25 25 26 25 23
2 2 5 11 3 7 7 7 10 7 11 13 14 14 17 16 18 18 18 19 21 22 22 22 24 25 26 26 26 27 24 26 25 27 29 26 25 26 24 26 27 29 28 25
2 5 10 8 5 3 9 11 7 9 9 9 12 13 17 18 20 21 21 19 22 22 22 23 26 25 25 26 26 26 23 25 25 25 30 29 27 25 26 26 27 29 30 29
7 10 3 9 2 4 8 10 7 7 8 13 13 15 17 19 20 22 19 21 20 22 23 24 23 25 25 24 25 26 24 25 27 29 28 26 27 26 26 23 23 27 27 28
6 6 5 5 6 9 8 8 8 8 10 13 13 15 17 17 21 19 21 19 21 20 20 20 21 22 23 25 25 27 28 27 27 29 27 26 28 30 27 25 24 24 23 23
9 8 5 5 9 7 2 7 7 8 11 14 14 14 17 18 20 19 18 22 25 24 22 19 18 20 22 25 25 27 29 28 27 26 26 25 26 28 33 31 28 27 26 26
7 7 7 8 1 4 5 6 8 10 12 14 16 17 17 17 17 21 25 26 20 22 23 25 25 22 20 23 27 31 27 27 27 28 28 26 25 26 28 29 33 35 30 27
6 6 7 7 4 7 3 6 10 13 15 15 15 15 14 18 21 24 20 16 19 20 21 19 18 19 22 25 27 26 28 28 27 27 28 26 24 25 27 27 29 31 33 31
4 5 5 4 5 7 4 7 10 12 13 13 12 13 14 15 19 13 15 17 21 18 20 18 19 22 23 26 25 28 29 26 25 27 28 26 26 26 29 30 29 28 31 34
7 6 7 6 7 2 4 5 7 9 10 11 12 15 16 15 11 13 16 18 15 15 13 20 27 22 19 19 24 27 26 24 26 27 26 25 25 26 27 29 28 29 30 31
6 4 0 1 1 1 2 3 5 7 10 15 17 15 13 11 13 15 17 15 13 13 11 24 28 20 16 21 24 26 22 23 27 27 24 24 24 22 25 27 28 29 29 31
4 4 4 4 3 2 2 3 5 12 14 17 15 13 11 10 13 14 15 13 14 13 24 23 18 17 20 23 25 19 21 25 28 24 24 23 23 23 24 25 27 26 28 29
4 4 5 5 6 6 6 10 11 12 14 15 14 12 10 11 11 12 11 14 11 21 18 16 17 19 21 19 19 20 23 23 23 24 24 22 20 22 22 23 24 26 26 28
6 7 8 10 12 15 13 13 14 14 14 14 13 11 11 10 10 11 11 10 15 16 16 15 17 20 20 20 19 20 21 22 22 23 23 21 19 20 21 22 23 24 26 26
9 9 12 16 18 18 19 18 17 17 15 14 13 12 11 9 9 7 9 12 16 14 14 14 16 18 19 19 19 19 21 21 22 22 24 21 20 21 21 21 23 23 23 24
10 12 13 16 18 19 19 19 18 17 17 17 14 11 11 10 8 10 10 14 13 12 12 12 13 15 17 18 19 20 21 21 23 22 23 24 22 21 21 21 21 21 21 23
12 13 15 15 17 18 19 17 19 17 17 13 14 9 9 11 11 7 14 16 13 11 11 11 14 15 15 17 19 19 20 21 22 21 21 22 23 24 24 24 21 21 21 21
13 14 16 17 16 17 18 14 15 15 13 14 10 12 13 7 12 13 16 15 13 12 11 12 14 16 16 17 17 17 18 18 21 22 21 21 22 24 24 25 24 22 23 23
15 16 15 15 16 15 16 16 17 14 14 12 13 13 15 17 16 14 14 14 12 12 12 12 14 15 15 16 16 17 17 17 17 19 21 21 20 21 24 23 25 25 23 23
13 13 15 14 13 14 16 17 17 18 15 14 15 13 15 17 13 12 13 12 11 10 10 11 11 12 14 15 16 16 17 18 16 16 18 19 21 21 22 22 22 22 23 22
Wind_Direction
334 125 100 82 57 46 56 34 48 29 345 328 310 304 357 3 6 7 7 8 8 6 3 3 13 14 11 24 23 28 34 42 37 35 39 40 41 42 38 43 48 55 69 77
352 164 106 76 67 67 61 44 69 321 295 268 300 323 7 6 9 8 3 5 7 6 4 4 2 17 8 17 23 24 38 30 33 29 33 29 35 38 33 31 35 37 39 37
277 200 165 75 5 78 103 135 350 6 282 281 317 63 28 9 9 6 4 1 2 6 7 360 358 8 6 14 17 25 31 26 21 28 21 30 31 28 31 31 35 27 24 28
298 333 224 137 180 213 83 97 14 26 3 350 342 85 48 24 7 1 359 4 1 2 4 5 356 3 6 11 8 16 22 20 16 22 22 10 23 23 28 23 25 25 12 8
320 360 110 51 114 174 305 23 347 13 16 355 349 337 42 15 6 358 355 356 359 359 360 1 1 357 360 9 5 5 12 9 11 12 11 17 19 17 16 12 20 22 12 357
349 314 63 32 350 356 131 211 314 2 7 2 352 355 4 352 357 355 353 354 353 354 356 357 356 358 358 357 1 0 6 1 359 1 11 7 13 12 11 16 16 14 6 12
342 309 106 16 350 317 246 346 341 7 4 3 355 349 342 343 347 350 349 350 351 349 351 353 351 353 358 352 358 348 1 354 348 356 2 357 2 5 7 11 9 3 9 10
255 243 223 349 3 19 328 322 342 354 357 348 345 337 339 341 341 342 343 346 348 349 345 345 346 348 349 350 347 343 353 351 349 344 348 351 359 0 358 355 358 358 358 360
254 339 267 266 295 305 294 302 304 335 351 350 338 332 327 334 336 335 336 337 340 338 339 342 344 344 342 342 340 337 343 345 347 338 338 352 355 353 355 353 352 351 354 346
278 244 247 277 272 334 328 329 338 336 322 324 323 323 323 332 332 334 335 339 335 337 338 336 336 338 336 335 335 329 342 344 340 332 331 344 351 351 351 350 346 346 343 339
266 292 182 246 208 327 338 319 296 304 329 326 329 327 330 332 336 333 335 335 339 338 337 335 333 335 335 333 331 335 341 340 332 330 337 345 342 341 344 341 334 334 337 333
238 278 258 307 354 335 321 307 320 319 316 318 324 321 321 324 323 323 332 334 336 333 328 329 326 332 331 332 337 338 337 330 331 339 342 342 342 336 337 339 339 339 335 331
285 284 315 290 290 287 307 314 320 337 311 309 317 320 328 326 326 332 334 332 328 327 328 327 323 325 328 329 328 331 332 340 338 344 340 337 337 333 335 336 339 340 338 335
252 265 271 276 350 310 333 324 313 308 321 339 338 332 329 332 322 325 327 329 337 326 323 318 319 327 333 329 331 332 340 344 344 340 340 340 335 335 335 335 334 336 342 345
277 253 258 267 316 299 289 315 331 337 336 334 332 331 336 327 321 324 330 339 334 342 338 337 334 335 333 333 336 342 344 344 341 340 340 340 339 335 335 335 337 339 340 341
248 252 254 260 268 283 316 341 338 330 333 333 332 331 328 315 318 331 334 331 343 355 358 357 346 334 335 334 339 341 339 337 341 341 340 338 338 339 340 342 344 343 340 337
265 256 255 268 289 340 335 345 329 329 330 329 323 315 321 327 335 334 340 346 359 357 353 335 332 334 335 339 336 335 334 338 340 341 337 338 339 336 338 342 342 344 339 338
240 250 23 291 318 348 324 322 320 321 320 314 322 324 328 330 333 344 345 353 357 352 338 324 334 340 347 339 335 334 343 342 340 335 337 339 338 337 340 340 342 342 339 341
215 228 202 210 213 218 254 272 283 310 322 329 328 327 328 339 339 340 346 5 355 330 333 338 349 5 352 338 334 351 349 341 342 346 343 338 338 340 341 344 344 345 344 348
206 211 214 223 222 233 235 273 300 308 321 329 330 326 329 332 332 342 358 6 328 328 337 353 3 353 338 349 358 353 346 343 344 345 341 338 338 340 342 345 346 348 353 354
231 238 241 239 239 260 272 282 289 298 308 322 326 317 317 327 330 348 350 329 312 341 350 1 3 358 4 2 1 354 351 350 348 345 344 344 341 343 342 346 350 353 357 357
242 246 252 260 269 277 274 275 279 287 294 307 312 310 310 320 319 329 322 313 320 336 348 359 2 4 6 4 359 358 358 358 355 355 357 356 352 347 346 346 351 354 357 359
252 264 270 273 274 281 281 275 274 284 290 294 296 297 299 306 321 311 307 307 323 329 340 346 345 354 358 357 1 3 5 3 359 2 359 4 2 357 351 348 350 351 355 358
258 269 276 275 284 273 274 263 273 283 295 289 298 294 300 299 291 308 284 311 317 320 331 329 333 342 345 346 353 357 357 1 3 3 1 1 2 1 0 359 356 354 353 355
277 281 283 278 269 269 270 264 249 275 267 275 285 278 300 300 284 297 303 311 312 313 321 324 328 333 339 341 344 346 349 352 356 3 5 3 2 1 4 5 5 3 4 1
282 283 284 282 284 273 273 259 259 268 246 252 258 266 254 279 294 301 307 313 313 315 318 321 325 331 337 342 345 346 345 345 349 356 2 5 6 5 3 5 6 7 7 5
281 284 288 282 281 278 271 263 264 244 270 239 238 253 266 283 294 303 303 314 321 326 333 339 344 346 349 350 350 353 355 355 353 352 353 360 4 7 6 5 4 4 7 8
Height
1509 1515 1517 1522 1527 1531 1531 1535 1534 1536 1531 1529 1523 1517 1511 1509 1504 1499 1494 1489 1483 1478 1471 1466 1459 1451 1444 1434 1428 1422 1412 1401 1402 1404 1399 1393 1394 1393 1397 1391 1386 1384 1383 1385
1510 1509 1515 1522 1522 1528 1532 1534 1535 1533 1529 1526 1517 1513 1511 1509 1505 1501 1497 1492 1488 1482 1476 1469 1463 1457 1451 1441 1439 1430 1418 1421 1422 1417 1404 1410 1399 1398 1397 1396 1391 1392 1388 1392
1510 1500 1511 1521 1533 1526 1529 1532 1531 1529 1526 1520 1513 1510 1511 1508 1506 1504 1501 1496 1490 1486 1480 1472 1466 1463 1458 1449 1445 1438 1429 1427 1431 1425 1424 1413 1413 1409 1401 1405 1401 1391 1400 1398
1514 1511 1520 1527 1527 1526 1525 1524 1522 1520 1519 1515 1511 1509 1512 1510 1507 1505 1501 1499 1494 1489 1484 1479 1472 1467 1463 1459 1449 1443 1442 1440 1437 1430 1423 1430 1423 1417 1407 1400 1398 1402 1401 1396
1519 1513 1521 1519 1520 1525 1523 1529 1521 1517 1517 1517 1512 1508 1507 1511 1510 1507 1503 1499 1496 1492 1488 1483 1478 1472 1466 1461 1459 1454 1447 1446 1439 1436 1431 1419 1414 1413 1413 1416 1404 1400 1407 1409
1520 1517 1516 1521 1518 1516 1519 1526 1521 1517 1516 1517 1514 1512 1512 1513 1511 1508 1504 1500 1496 1492 1488 1484 1480 1477 1471 1466 1462 1457 1451 1448 1443 1438 1435 1427 1423 1419 1417 1411 1406 1399 1410 1395
1522 1523 1517 1519 1518 1514 1522 1528 1519 1517 1517 1517 1517 1517 1515 1513 1511 1509 1506 1501 1497 1493 1489 1485 1480 1477 1473 1469 1464 1459 1454 1452 1446 1441 1436 1434 1429 1424 1417 1413 1417 1423 1414 1408
1519 1522 1522 1519 1518 1521 1522 1518 1517 1516 1517 1518 1517 1516 1515 1512 1510 1508 1505 1502 1499 1495 1490 1487 1484 1478 1475 1471 1466 1460 1455 1451 1447 1442 1439 1434 1426 1424 1423 1421 1416 1410 1405 1402
1522 1521 1519 1517 1516 1517 1517 1516 1516 1516 1516 1516 1515 1515 1514 1511 1508 1506 1503 1501 1498 1495 1491 1486 1482 1479 1474 1470 1467 1463 1458 1454 1449 1444 1438 1433 1428 1425 1421 1415 1409 1406 1399 1404
1520 1514 1513 1513 1514 1515 1515 1515 1514 1515 1516 1515 1515 1514 1511 1509 1506 1504 1501 1499 1497 1493 1489 1485 1481 1478 1474 1470 1466 1461 1456 1452 1448 1442 1435 1429 1426 1423 1418 1415 1412 1406 1403 1397
1509 1508 1509 1512 1513 1513 1513 1514 1513 1513 1514 1514 1513 1511 1509 1507 1504 1503 1500 1497 1494 1491 1486 1484 1481 1476 1472 1468 1463 1458 1454 1449 1445 1439 1434 1430 1425 1422 1419 1416 1414 1409 1403 1397
1507 1506 1509 1508 1509 1511 1512 1512 1512 1512 1513 1512 1511 1509 1507 1505 1503 1500 1497 1494 1492 1490 1487 1482 1476 1476 1472 1467 1462 1457 1451 1446 1441 1436 1433 1429 1425 1420 1418 1416 1412 1407 1403 1399
1504 1505 1506 1508 1509 1508 1510 1511 1511 1512 1512 1509 1508 1506 1504 1502 1500 1496 1494 1491 1487 1485 1484 1481 1480 1475 1469 1463 1460 1456 1449 1442 1438 1435 1431 1428 1426 1421 1413 1409 1407 1405 1401 1395
1502 1504 1505 1506 1506 1508 1509 1509 1510 1509 1509 1507 1506 1504 1503 1500 1496 1494 1491 1488 1485 1482 1478 1475 1472 1469 1466 1462 1458 1452 1446 1441 1437 1434 1431 1427 1424 1420 1415 1409 1402 1397 1396 1394
1499 1500 1502 1504 1505 1506 1507 1508 1508 1508 1507 1506 1505 1504 1501 1498 1495 1492 1489 1486 1482 1479 1475 1470 1468 1465 1463 1460 1456 1449 1444 1440 1437 1433 1429 1426 1422 1419 1415 1410 1403 1396 1391 1389
1499 1500 1500 1501 1503 1504 1505 1506 1507 1508 1507 1505 1503 1501 1499 1496 1493 1490 1487 1484 1480 1476 1473 1471 1468 1464 1460 1456 1451 1446 1443 1441 1437 1433 1429 1424 1419 1415 1412 1406 1401 1396 1392 1385
1499 1499 1499 1500 1502 1503 1504 1505 1507 1506 1505 1503 1500 1497 1494 1492 1490 1488 1486 1482 1479 1476 1473 1471 1466 1462 1459 1456 1453 1449 1444 1440 1436 1432 1428 1422 1416 1413 1409 1403 1399 1393 1390 1386
1497 1497 1498 1500 1501 1502 1503 1504 1504 1503 1501 1499 1496 1493 1491 1489 1487 1486 1483 1481 1478 1475 1473 1469 1464 1460 1458 1455 1451 1446 1442 1438 1434 1429 1424 1419 1415 1411 1407 1402 1398 1391 1386 1382
1495 1496 1498 1499 1500 1501 1501 1502 1501 1500 1498 1495 1493 1491 1489 1487 1485 1484 1481 1479 1476 1473 1471 1466 1462 1459 1457 1453 1449 1444 1441 1437 1432 1427 1422 1418 1414 1410 1407 1402 1397 1391 1385 1378
1495 1496 1497 1497 1498 1497 1498 1497 1497 1496 1495 1493 1491 1489 1487 1486 1484 1482 1480 1478 1475 1472 1469 1465 1461 1459 1455 1451 1448 1444 1441 1436 1431 1427 1423 1418 1414 1411 1407 1403 1399 1392 1382 1378
1494 1494 1494 1494 1494 1494 1493 1493 1492 1492 1491 1489 1487 1487 1485 1484 1482 1480 1478 1477 1474 1470 1467 1463 1461 1457 1453 1451 1447 1444 1440 1436 1431 1427 1422 1417 1414 1410 1406 1402 1397 1391 1383 1379
1491 1491 1491 1490 1490 1490 1489 1488 1488 1487 1486 1485 1484 1483 1482 1481 1480 1479 1477 1474 1471 1468 1465 1463 1460 1457 1454 1450 1447 1444 1439 1435 1431 1426 1422 1417 1413 1409 1405 1401 1396 1391 1387 1384
1488 1488 1487 1486 1485 1485 1484 1483 1482 1482 1482 1481 1480 1480 1479 1478 1477 1476 1475 1472 1469 1466 1464 1462 1459 1456 1453 1450 1446 1442 1439 1435 1431 1426 1422 1418 1414 1410 1405 1401 1397 1393 1389 1385
1484 1484 1483 1483 1480 1479 1479 1479 1478 1478 1477 1477 1477 1476 1476 1475 1475 1474 1471 1468 1466 1464 1462 1460 1457 1454 1451 1448 1444 1441 1438 1435 1430 1426 1422 1418 1414 1410 1405 1400 1396 1392 1388 1384
1480 1480 1479 1478 1477 1476 1475 1476 1476 1475 1474 1473 1474 1473 1472 1472 1472 1470 1468 1465 1463 1461 1459 1457 1454 1451 1449 1445 1442 1440 1437 1434 1430 1426 1422 1418 1414 1409 1405 1400 1395 1390 1386 1381
1476 1475 1475 1474 1472 1471 1471 1470 1471 1471 1471 1471 1471 1471 1469 1468 1467 1466 1464 1462 1460 1458 1456 1454 1452 1449 1446 1444 1441 1438 1435 1432 1428 1425 1421 1417 1413 1409 1405 1401 1396 1391 1387 1383
1472 1471 1470 1469 1468 1467 1466 1466 1466 1466 1466 1467 1467 1466 1465 1464 1463 1462 1460 1459 1457 1456 1454 1452 1450 1447 1445 1442 1440 1437 1434 1431 1427 1424 1421 1417 1413 1409 1405 1401 1397 1393 1389 1385